Location: Casaglia
(44.0333°N, 11.5167°E)
Time: 22:09:33
(UTC+00:00)

Envisat - Pass Details

Date: 09 August 2021
Orbit: 764 x 766 km, 98.2° (Epoch: 17 September)

Event Time Altitude Azimuth Distance (km) Brightness Sun altitude
Rises 03:06:54 0° 33° (NNE) 3,241 7.6 -10.9°
Reaches altitude 10° 03:10:31 10° 59° (ENE) 2,308 7.1 -10.4°
Maximum altitude 03:12:57 13° 88° (E) 2,072 6.2 -10.0°
Drops below altitude 10° 03:15:22 10° 117° (ESE) 2,299 5.9 -9.6°
Sets 03:18:56 0° 144° (SE) 3,218 6.3 -9.1°
